Starlink 31532

operational
NORAD ID: 59349 Int'l Des: 2024-060 Owner: SPXS Country: US Constellation: starlink
LEOCIRCULAR

关于 Starlink 31532

正在加载描述...

实时位置

正在加载3D地球...

即将过境

高度历史

Altitude vs Time

uPlot chart will show altitude changes over time

两行轨道根数

1 59349U 24060B 26036.39425925 .00002423 00000-0 97532-4 0 9999
2 59349 43.0030 82.2470 0001405 271.7201 88.3489 15.27586730105173
Epoch: Feb 5, 2026 • Age: 12 hours

当前状态

高度 491.3 km
速度 7.62 km/s
星下点 -32.33°S, 155.99°W
发射日期 Mar 31, 2024
运行时间 1.8 years
类型 internet

技术详情

分类 Payload
质量 730.00 kg
干质量 700.00 kg
总质量 730.00 kg
长度 0.30 m
直径 4.10 m
跨度 29.00 m
形状 Box + pan
制造商 SPXS
平台类型 Starlink V2M
阶段状态 In Orbit
所有者/国家 SPXS/US

大型星座

Loading constellations...